Overview Statistics Trail Chart Weather Telemetry Raw packets
 

This is the latest recevied weather packets stored in our database for station/object ED1ZAI-14. If no packets are shown the sender has not sent any weather packets the latest 10 day(s).

<< 8 9 10 11 12 13 14 >>
Time Temp. Humidity Pressure Rain* Wind** Luminosity Snow
1788177858 21.67° C 38% 814.5 hPa - - - -
1788176058 22.22° C 41% 814.5 hPa - - - -
1788174258 20.56° C 44% 814.4 hPa - - - -
1788170658 22.22° C 42% 814.3 hPa - - - -
1788168858 22.22° C 46% 814.3 hPa - - - -
1788167057 21.11° C 42% 814.1 hPa - - - -
1788165257 19.44° C 45% 813.9 hPa - - - -
1788163457 17.22° C 46% 813.8 hPa - - - -
1788161657 16.11° C 53% 813.6 hPa - - - -
1788159857 14.44° C 59% 813.5 hPa - - - -
1788158057 12.78° C 63% 813.3 hPa - - - -
1788156257 11.67° C 66% 813.1 hPa - - - -
1788154457 11.67° C 63% 813 hPa - - - -
1788152657 11.67° C 62% 812.9 hPa - - - -
1788150857 11.67° C 65% 812.9 hPa - - - -
1788149057 11.67° C 69% 812.9 hPa - - - -
1788147257 11.67° C 73% 812.9 hPa - - - -
1788145457 12.22° C 72% 813 hPa - - - -
1788143656 12.22° C 75% 813 hPa - - - -
1788141856 12.22° C 76% 812.9 hPa - - - -
1788140056 12.22° C 80% 813.1 hPa - - - -
1788138258 12.22° C 85% 813 hPa - - - -
1788136457 12.22° C 86% 813.2 hPa - - - -
1788134657 12.22° C 84% 813.2 hPa - - - -
1788132857 12.22° C 84% 813.3 hPa - - - -

* Rain since midnight (hover to see other rain measurements)
** Current wind speed in m/s (hover to see current wind gust speed)